Delhi Cantonment, India

12:50 AM IST on December 08, 2016 (GMT +0530)
Indira Gandhi International

Weather History for VIDP - March, 2013

Change the Weather History Date:

Friday, March 22, 2013

  Actual Average Record
Temperature  
Mean Temperature 74 °F -  
Max Temperature 87 °F 86 °F 104 °F (2004)
Min Temperature 60 °F 62 °F 51 °F (1999)
Cooling Degree Days 8    
Growing Degree Days 24 (Base 50)    
Moisture  
Dew Point 55 °F    
Average Humidity 51    
Maximum Humidity 100    
Minimum Humidity 27    
Precipitation  
Precipitation 0.00 in - - ()
Sea Level Pressure  
Sea Level Pressure 29.75 in    
Wind  
Wind Speed 7 mph ()    
Max Wind Speed 14 mph    
Max Gust Speed -    
Visibility 1.8 miles    
Events Fog    
Averages and records for this station are not official NWS values.
T = Trace of Precipitation, MM = Missing Value Source: Averaged Metar Reports

Daily Weather History Graph

Daily Weather History Graph

Search for Another Location

Airport or City:

Trip Planner

Search our weather history database for the weather conditions in past years. The results will help you decide how hot, cold, wet, or windy it might be!

Date:

Astronomy

Mar. 22, 2013 Rise Set
Actual Time 6:23 AM IST 6:33 PM IST
Civil Twilight 5:59 AM IST 6:57 PM IST
Nautical Twilight 5:32 AM IST 7:24 PM IST
Astronomical Twilight 5:04 AM IST 7:52 PM IST
Moon 1:55 PM IST (3/22) 2:44 AM IST (3/22)
Length of Visible Light 12h 57m
Length of Day
12h 10m
Waxing Gibbous, 73% of the Moon is Illuminated
Mar 22
Waxing Gibbous
Mar 27
Full
Apr 3
Last Quarter
Apr 10
New
Apr 18
First Quarter

Hourly Weather History & Observations

Time (IST) Temp. Heat Index Dew Point Humidity Pressure Visibility Wind Dir Wind Speed Gust Speed Precip Events Conditions
12:00 AM 75.2 °F - 62.6 °F 65% 29.80 in 1.6 mi West 6.9 mph - N/A   Haze
12:30 AM 73.4 °F - 64.4 °F 73% 29.80 in 1.6 mi West 8.1 mph - N/A   Haze
1:00 AM 73.4 °F - 62.6 °F 69% 29.77 in 1.3 mi West 8.1 mph - N/A   Haze
1:30 AM 71.6 °F - 60.8 °F 69% 29.77 in 1.3 mi West 8.1 mph - N/A   Haze
2:00 AM 71.6 °F - 60.8 °F 69% 29.77 in 1.3 mi West 8.1 mph - N/A   Haze
2:30 AM 71.6 °F - 62.6 °F 73% 29.74 in 1.3 mi WNW 8.1 mph - N/A   Haze
3:00 AM 71.6 °F - 62.6 °F 73% 29.74 in 1.3 mi NW 9.2 mph - N/A   Haze
3:30 AM 69.8 °F - 59.0 °F 68% 29.71 in 1.4 mi NW 11.5 mph - N/A   Haze
4:00 AM 69.8 °F - 59.0 °F 68% 29.71 in 1.7 mi NNW 9.2 mph - N/A   Haze
5:00 AM 68.0 °F - 62.6 °F 83% 29.71 in 1.4 mi NW 8.1 mph - N/A   Mist
5:30 AM 62.6 °F - 60.8 °F 94% 29.74 in 1.1 mi West 8.1 mph - N/A   Mist
7:00 AM 60.8 °F - 60.8 °F 100% 29.74 in 0.3 mi West 6.9 mph - N/A Fog Fog
7:30 AM 62.6 °F - 62.6 °F 100% 29.77 in 0.3 mi WSW 5.8 mph - N/A Fog Fog
9:00 AM 68.0 °F - 44.6 °F 43% 29.80 in 0.7 mi WSW 8.1 mph - N/A   Mist
9:30 AM 71.6 °F - 64.4 °F 78% 29.80 in 0.7 mi West 8.1 mph - N/A   Mist
10:30 AM 77.0 °F - 60.8 °F 57% 29.80 in 1.1 mi West 6.9 mph - N/A   Smoke
11:00 AM 78.8 °F - 60.8 °F 54% 29.80 in 1.2 mi WNW 8.1 mph - N/A   Smoke
11:30 AM 80.6 °F 81.1 °F 59.0 °F 48% 29.80 in 1.4 mi WNW 8.1 mph - N/A   Smoke
12:00 PM 82.4 °F - 51.8 °F 35% 29.80 in 1.6 mi WNW 10.4 mph - N/A   Haze
1:00 PM 86.0 °F - 50.0 °F 29% 29.77 in 2.5 mi WNW 10.4 mph - N/A   Haze
1:30 PM 86.0 °F - 51.8 °F 31% 29.77 in 2.5 mi West 13.8 mph - N/A   Haze
2:00 PM 87.8 °F - 50.0 °F 27% 29.74 in 2.5 mi WNW 11.5 mph - N/A   Haze
2:30 PM 86.0 °F - 50.0 °F 29% 29.74 in 2.8 mi NW 10.4 mph - N/A   Haze
3:00 PM 86.0 °F - 51.8 °F 31% 29.74 in 2.8 mi WNW 11.5 mph - N/A   Haze
3:30 PM 86.0 °F - 48.2 °F 27% 29.71 in 2.8 mi WNW 11.5 mph - N/A   Haze
4:00 PM 86.0 °F - 50.0 °F 29% 29.71 in 2.8 mi WNW 11.5 mph - N/A   Haze
4:30 PM 86.0 °F - 50.0 °F 29% 29.71 in 2.8 mi WNW 11.5 mph - N/A   Haze
5:00 PM 84.2 °F - 48.2 °F 29% 29.71 in 2.8 mi WNW 10.4 mph - N/A   Haze
5:30 PM 84.2 °F - 48.2 °F 29% 29.71 in 2.8 mi WNW 8.1 mph - N/A   Haze
6:00 PM 82.4 °F - 48.2 °F 30% 29.71 in 2.8 mi WNW 6.9 mph - N/A   Haze
6:30 PM 82.4 °F - 50.0 °F 32% 29.74 in 2.8 mi WNW 5.8 mph - N/A   Haze
7:00 PM 82.4 °F - 50.0 °F 32% 29.74 in 2.5 mi WNW 3.5 mph - N/A   Haze
7:30 PM 80.6 °F - 50.0 °F 34% 29.74 in 2.2 mi WNW 4.6 mph - N/A   Haze
8:30 PM 78.8 °F - 51.8 °F 39% 29.74 in 1.6 mi NW 4.6 mph - N/A   Haze
9:00 PM 78.8 °F - 51.8 °F 39% 29.74 in 1.6 mi NW 4.6 mph - N/A   Haze
9:30 PM 78.8 °F - 53.6 °F 42% 29.74 in 1.6 mi Calm Calm - N/A   Haze
10:00 PM 77.0 °F - 55.4 °F 47% 29.74 in 1.6 mi East 3.5 mph - N/A   Haze
11:00 PM 75.2 °F - 55.4 °F 50% 29.74 in 1.6 mi East 3.5 mph - N/A   Haze
11:30 PM 75.2 °F - 55.4 °F 50% 29.74 in 1.6 mi ESE 3.5 mph - N/A   Haze